Time,TemperatureF,DewpointF,PressureIn,WindDirection,WindDirectionDegrees,WindSpeedMPH,WindSpeedGustMPH,Humidity,HourlyPrecipIn,Conditions,Clouds,dailyrainin,SolarRadiationWatts/m^2,SoftwareType,DateUTC
2013-07-15 00:32:00,51.0,48.0,-100.00,East,97,0.0,2.0,91,0.00,,,0.00,3.000000,,2013-07-15 08:32:00,
2013-07-15 00:43:00,51.0,48.0,-100.00,East,97,0.0,2.0,91,0.00,,,0.00,3.000000,,2013-07-15 08:43:00,
2013-07-15 00:53:00,51.0,48.0,-100.00,East,97,0.0,2.0,91,0.00,,,0.00,3.000000,,2013-07-15 08:53:00,
2013-07-15 01:52:00,49.0,47.0,-100.00,East,91,0.0,1.0,94,0.00,,,0.00,0.000000,,2013-07-15 09:52:00,
2013-07-15 03:11:00,49.0,48.0,-100.00,East,99,0.0,0.0,96,-99.99,,,-99.99,,,2013-07-15 11:11:00,
2013-07-15 03:22:00,49.0,48.0,-100.00,East,99,0.0,0.0,96,-99.99,,,0.00,0.000000,,2013-07-15 11:22:00,
2013-07-15 03:32:00,49.0,48.0,-100.00,East,99,0.0,0.0,96,-99.99,,,0.00,0.000000,,2013-07-15 11:32:00,
2013-07-15 03:42:00,49.0,48.0,-100.00,East,99,0.0,0.0,96,-99.99,,,0.00,0.000000,,2013-07-15 11:42:00,
2013-07-15 03:52:00,49.0,48.0,-100.00,East,99,0.0,0.0,96,-99.99,,,0.00,0.000000,,2013-07-15 11:52:00,
2013-07-15 04:22:00,50.0,48.0,-100.00,East,90,0.0,2.0,94,0.00,,,0.00,0.000000,,2013-07-15 12:22:00,
2013-07-15 04:32:00,50.0,48.0,-100.00,East,90,0.0,2.0,94,0.00,,,0.00,0.000000,,2013-07-15 12:32:00,
2013-07-15 04:42:00,50.0,48.0,-100.00,East,90,0.0,2.0,94,0.00,,,0.00,0.000000,,2013-07-15 12:42:00,
2013-07-15 04:52:00,50.0,48.0,-100.00,East,90,0.0,2.0,94,0.00,,,0.00,0.000000,,2013-07-15 12:52:00,
2013-07-15 05:22:00,51.0,49.0,-100.00,East,80,0.0,0.0,94,0.00,,,0.00,1.000000,,2013-07-15 13:22:00,
2013-07-15 05:33:00,51.0,49.0,-100.00,East,80,0.0,0.0,94,0.00,,,0.00,1.000000,,2013-07-15 13:33:00,
2013-07-15 05:43:00,51.0,49.0,-100.00,East,80,0.0,0.0,94,0.00,,,0.00,1.000000,,2013-07-15 13:43:00,
2013-07-15 05:53:00,51.0,49.0,-100.00,East,80,0.0,0.0,94,0.00,,,0.00,1.000000,,2013-07-15 13:53:00,
2013-07-15 06:22:00,52.0,50.0,-100.00,ENE,62,0.0,0.0,94,0.00,,,0.00,8.000000,,2013-07-15 14:22:00,
2013-07-15 06:33:00,52.0,50.0,-100.00,ENE,62,0.0,0.0,94,0.00,,,0.00,8.000000,,2013-07-15 14:33:00,
2013-07-15 06:42:00,52.0,50.0,-100.00,ENE,62,0.0,0.0,94,0.00,,,0.00,8.000000,,2013-07-15 14:42:00,
2013-07-15 06:53:00,52.0,50.0,-100.00,ENE,62,0.0,0.0,94,0.00,,,0.00,8.000000,,2013-07-15 14:53:00,
2013-07-15 07:35:00,54.0,52.0,-100.00,ENE,78,0.0,0.0,94,0.00,,,0.00,28.000000,,2013-07-15 15:35:00,
2013-07-15 07:53:00,54.0,52.0,-100.00,ENE,78,0.0,0.0,94,0.00,,,0.00,28.000000,,2013-07-15 15:53:00,
2013-07-15 08:14:00,56.0,52.0,-100.00,NE,39,1.0,2.0,85,-99.99,,,-99.99,,,2013-07-15 16:14:00,
2013-07-15 08:24:00,56.0,52.0,-100.00,NE,39,1.0,2.0,85,0.00,,,0.00,66.000000,,2013-07-15 16:24:00,
2013-07-15 08:32:00,56.0,52.0,-100.00,NE,39,1.0,2.0,85,0.00,,,0.00,66.000000,,2013-07-15 16:32:00,
2013-07-15 08:44:00,56.0,52.0,-100.00,NE,39,1.0,2.0,85,0.00,,,0.00,66.000000,,2013-07-15 16:44:00,
2013-07-15 08:52:00,56.0,52.0,-100.00,NE,39,1.0,2.0,85,0.00,,,0.00,66.000000,,2013-07-15 16:52:00,
2013-07-15 09:35:00,57.0,50.0,-100.00,West,275,1.0,4.0,76,0.00,,,0.00,71.000000,,2013-07-15 17:35:00,
2013-07-15 09:45:00,57.0,50.0,-100.00,West,275,1.0,4.0,76,0.00,,,0.00,71.000000,,2013-07-15 17:45:00,
2013-07-15 10:34:00,58.0,49.0,-100.00,NNW,337,2.0,5.0,73,0.00,,,0.00,114.000000,,2013-07-15 18:34:00,
2013-07-15 10:45:00,58.0,49.0,-100.00,NNW,337,2.0,5.0,73,0.00,,,0.00,114.000000,,2013-07-15 18:45:00,
2013-07-15 10:53:00,58.0,49.0,-100.00,NNW,337,2.0,5.0,73,0.00,,,0.00,114.000000,,2013-07-15 18:53:00,
2013-07-15 11:11:00,58.0,50.0,-100.00,SE,142,3.0,4.0,74,-99.99,,,-99.99,,,2013-07-15 19:11:00,
2013-07-15 11:24:00,58.0,50.0,-100.00,SE,142,3.0,5.0,74,0.00,,,0.00,130.000000,,2013-07-15 19:24:00,
2013-07-15 11:34:00,58.0,50.0,-100.00,SE,142,3.0,5.0,74,0.00,,,0.00,130.000000,,2013-07-15 19:34:00,
2013-07-15 11:44:00,58.0,50.0,-100.00,SE,142,3.0,5.0,74,0.00,,,0.00,130.000000,,2013-07-15 19:44:00,
2013-07-15 11:53:00,58.0,50.0,-100.00,SE,142,3.0,5.0,74,0.00,,,0.00,130.000000,,2013-07-15 19:53:00,
2013-07-15 12:24:00,59.0,51.0,-100.00,West,267,3.0,5.0,76,0.00,,,0.00,148.000000,,2013-07-15 20:24:00,
2013-07-15 12:34:00,59.0,51.0,-100.00,West,267,3.0,5.0,76,0.00,,,0.00,148.000000,,2013-07-15 20:34:00,
2013-07-15 12:43:00,59.0,51.0,-100.00,West,267,3.0,5.0,76,0.00,,,0.00,148.000000,,2013-07-15 20:43:00,
2013-07-15 13:12:00,59.0,51.0,-100.00,WNW,295,3.0,6.0,75,-99.99,,,-99.99,,,2013-07-15 21:12:00,
2013-07-15 13:23:00,59.0,51.0,-100.00,WNW,295,4.0,7.0,75,0.00,,,0.00,205.000000,,2013-07-15 21:23:00,
2013-07-15 14:22:00,60.0,52.0,-100.00,SW,232,2.0,6.0,76,0.00,,,0.00,186.000000,,2013-07-15 22:22:00,
2013-07-15 14:34:00,60.0,52.0,-100.00,SW,232,2.0,6.0,76,0.00,,,0.00,186.000000,,2013-07-15 22:34:00,
2013-07-15 14:43:00,60.0,52.0,-100.00,SW,232,2.0,6.0,76,0.00,,,0.00,186.000000,,2013-07-15 22:43:00,
2013-07-15 15:44:00,60.0,52.0,-100.00,West,266,4.0,6.0,74,0.00,,,0.00,158.000000,,2013-07-15 23:44:00,
2013-07-15 15:53:00,60.0,52.0,-100.00,West,266,4.0,6.0,74,0.00,,,0.00,158.000000,,2013-07-15 23:53:00,
2013-07-15 16:25:00,62.0,54.0,-100.00,West,280,3.0,7.0,75,0.00,,,0.00,215.000000,,2013-07-16 00:25:00,
2013-07-15 16:33:00,62.0,54.0,-100.00,West,280,3.0,7.0,75,0.00,,,0.00,215.000000,,2013-07-16 00:33:00,
2013-07-15 16:44:00,62.0,54.0,-100.00,West,280,3.0,7.0,75,0.00,,,0.00,215.000000,,2013-07-16 00:44:00,
2013-07-15 16:52:00,62.0,54.0,-100.00,West,280,3.0,7.0,75,0.00,,,0.00,215.000000,,2013-07-16 00:52:00,
2013-07-15 17:25:00,62.0,53.0,-100.00,West,277,2.0,6.0,72,0.00,,,0.00,175.000000,,2013-07-16 01:25:00,
2013-07-15 17:34:00,62.0,53.0,-100.00,West,277,2.0,6.0,72,0.00,,,0.00,175.000000,,2013-07-16 01:34:00,
2013-07-15 17:44:00,62.0,53.0,-100.00,West,277,2.0,6.0,72,0.00,,,0.00,175.000000,,2013-07-16 01:44:00,
2013-07-15 17:54:00,62.0,53.0,-100.00,West,277,2.0,6.0,72,0.00,,,0.00,175.000000,,2013-07-16 01:54:00,
2013-07-15 18:35:00,62.0,53.0,-100.00,WNW,288,3.0,7.0,72,0.00,,,0.00,178.000000,,2013-07-16 02:35:00,
2013-07-15 18:53:00,62.0,53.0,-100.00,WNW,288,3.0,7.0,72,0.00,,,0.00,178.000000,,2013-07-16 02:53:00,
2013-07-15 19:13:00,62.0,53.0,-100.00,WNW,288,2.0,6.0,73,-99.99,,,-99.99,,,2013-07-16 03:13:00,
2013-07-15 19:34:00,62.0,53.0,-100.00,WNW,288,2.0,7.0,73,0.00,,,0.00,155.000000,,2013-07-16 03:34:00,
2013-07-15 19:53:00,62.0,53.0,-100.00,WNW,288,2.0,7.0,73,0.00,,,0.00,155.000000,,2013-07-16 03:53:00,
2013-07-15 20:12:00,63.0,54.0,-100.00,NNE,17,2.0,4.0,72,-99.99,,,-99.99,,,2013-07-16 04:12:00,
2013-07-15 20:22:00,63.0,54.0,-100.00,NNE,17,2.0,4.0,72,-99.99,,,-99.99,,,2013-07-16 04:22:00,
2013-07-15 20:32:00,63.0,54.0,-100.00,NNE,17,2.0,4.0,72,-99.99,,,-99.99,,,2013-07-16 04:32:00,
2013-07-15 20:43:00,63.0,54.0,-100.00,NNE,17,2.0,4.0,72,-99.99,,,-99.99,,,2013-07-16 04:43:00,
2013-07-15 20:53:00,63.0,54.0,-100.00,NNE,17,2.0,4.0,72,-99.99,,,-99.99,,,2013-07-16 04:53:00,
2013-07-15 21:11:00,60.0,52.0,-100.00,WNW,284,3.0,5.0,74,-99.99,,,-99.99,,,2013-07-16 05:11:00,
2013-07-15 21:22:00,60.0,52.0,-100.00,WNW,284,3.0,5.0,74,-99.99,,,-99.99,,,2013-07-16 05:22:00,
2013-07-15 21:32:00,60.0,52.0,-100.00,WNW,284,3.0,5.0,74,-99.99,,,-99.99,,,2013-07-16 05:32:00,
2013-07-15 21:43:00,60.0,52.0,-100.00,WNW,284,3.0,5.0,74,-99.99,,,-99.99,,,2013-07-16 05:43:00,
2013-07-15 21:52:00,60.0,52.0,-100.00,WNW,284,3.0,5.0,74,-99.99,,,-99.99,,,2013-07-16 05:52:00,
2013-07-15 23:22:00,56.0,52.0,-100.00,NNW,338,0.0,2.0,87,-99.99,,,-99.99,,,2013-07-16 07:22:00,
2013-07-15 23:32:00,56.0,52.0,-100.00,NNW,338,0.0,2.0,87,-99.99,,,-99.99,,,2013-07-16 07:32:00,
2013-07-15 23:43:00,56.0,52.0,-100.00,NNW,338,0.0,2.0,87,-99.99,,,-99.99,,,2013-07-16 07:43:00,
2013-07-15 23:52:00,56.0,52.0,-100.00,NNW,338,0.0,2.0,87,-99.99,,,-99.99,,,2013-07-16 07:52:00,